User: anonymous   Login
Location: Archemont
(49.1579°N, 1.7598°E)
Time: 12:50:34
(UTC+00:00)
Language:

CZ-6A DEB - Orbit

View from above orbital plane
View from above orbital plane
View from above satellite
View from above satellite

Ground track
Ground track

The orbit data is extracted from the following two-line orbital elements,

1 54511U 22151JP  24169.93918029  .00000485  00000-0  37333-3 0  9999
2 54511  98.8241 157.3262 0131483 297.6451  61.1415 13.93754287 81073
Epoch (UTC): 17 June 2024 22:32:25
Eccentricity: 0.0131483
inclination: 98.8241°
perigee height: 819 km
apogee height: 1011 km
right ascension of ascending node: 157.3262°
argument of perigee: 297.6451°
revolutions per day: 13.93754287
mean anomaly at epoch: 61.1415°
orbit number at epoch: 8107

The dashed part of the orbit path shows where the satellite is in the earth's shadow,  

DLR